GW0245 Weather Reports


Display with metric or nautical units.
time (UTC)temp
F
wind
direction
speed
MPH
gust
MPH
rain 1hr
in
rain 24hr
in
rain mn
in
humidity
%
barometer
mb
20260509173103 85 76 3.0 9.0 0.00 0.00 0.00 14 1015.2
20260509171559 83 67 3.0 8.0 0.00 0.00 0.00 14 1015.5
20260509170057 82 83 3.0 8.0 0.00 0.00 0.00 15 1015.6
20260509164602 82 50 2.0 7.0 0.00 0.00 0.00 15 1015.6
20260509163101 80 117 1.0 8.0 0.00 0.00 0.00 17 1015.7
20260509161554 79 82 2.0 6.0 0.00 0.00 0.00 16 1016.0
20260509160058 78 59 1.0 6.0 0.00 0.00 0.00 17 1016.1
20260509154557 77 0 3.0 5.0 0.00 0.00 0.00 17 1016.1
20260509153058 76 106 1.0 3.0 0.00 0.00 0.00 18 1016.1
20260509151552 74 0 0.0 3.0 0.00 0.00 0.00 20 1016.2
20260509150054 73 84 0.0 3.0 0.00 0.00 0.00 20 1016.2
20260509144554 72 46 2.0 5.0 0.00 0.00 0.00 20 1016.1
20260509143052 72 33 0.0 2.0 0.00 0.00 0.00 22 1016.0
20260509141609 70 0 0.0 2.0 0.00 0.00 0.00 22 1016.1
20260509140059 69 69 0.0 3.0 0.00 0.00 0.00 23 1015.9
20260509134600 66 0 0.0 1.0 0.00 0.00 0.00 23 1015.7
20260509133053 64 0 0.0 1.0 0.00 0.00 0.00 24 1015.6
20260509131555 60 0 0.0 1.0 0.00 0.00 0.00 30 1015.5
20260509130055 58 0 0.0 2.0 0.00 0.00 0.00 31 1015.3
20260509124556 56 0 0.0 3.0 0.00 0.00 0.00 31 1015.2
20260509123100 56 263 1.0 3.0 0.00 0.00 0.00 31 1015.0
20260509121552 57 263 0.0 3.0 0.00 0.00 0.00 29 1014.9
20260509120059 58 279 1.0 2.0 0.00 0.00 0.00 29 1014.8
20260509114557 58 278 0.0 3.0 0.00 0.00 0.00 28 1014.7
20260509113053 59 0 0.0 3.0 0.00 0.00 0.00 28 1014.6
20260509111552 61 262 1.0 3.0 0.00 0.00 0.00 25 1014.5
20260509110054 63 0 0.0 3.0 0.00 0.00 0.00 23 1014.4
20260509104556 65 136 1.0 3.0 0.00 0.00 0.00 22 1014.3
20260509103052 66 0 0.0 5.0 0.00 0.00 0.00 22 1014.4
20260509101558 67 207 1.0 7.0 0.00 0.00 0.00 21 1014.4
20260509100056 66 154 1.0 7.0 0.00 0.00 0.00 22 1014.4
20260509094555 66 0 0.0 6.0 0.00 0.00 0.00 22 1014.4
20260509093059 66 0 0.0 5.0 0.00 0.00 0.00 22 1014.4
20260509091557 66 188 0.0 4.0 0.00 0.00 0.00 22 1014.5
20260509090056 66 167 1.0 4.0 0.00 0.00 0.00 22 1014.4
20260509084557 66 0 0.0 3.0 0.00 0.00 0.00 23 1014.4
20260509083052 66 0 0.0 1.0 0.00 0.00 0.00 22 1014.3
20260509081555 67 0 0.0 3.0 0.00 0.00 0.00 22 1014.3
20260509080057 67 0 0.0 3.0 0.00 0.00 0.00 22 1014.3
20260509074556 69 0 0.0 3.0 0.00 0.00 0.00 21 1014.3
20260509073055 71 0 0.0 5.0 0.00 0.00 0.00 20 1014.4
20260509071552 74 117 0.0 7.0 0.00 0.00 0.00 18 1014.3
20260509070057 79 0 2.0 11.0 0.00 0.00 0.00 14 1014.2
20260509064607 79 216 5.0 15.0 0.00 0.00 0.00 14 1014.0
20260509063055 79 281 9.0 19.0 0.00 0.00 0.00 14 1014.0
20260509061554 79 277 10.0 21.0 0.00 0.00 0.00 14 1013.7
20260509060056 80 249 9.0 19.0 0.00 0.00 0.00 14 1013.7
20260509054555 80 270 12.0 22.0 0.00 0.00 0.00 14 1013.5
20260509053058 80 260 11.0 22.0 0.00 0.00 0.00 14 1013.5
20260509051602 80 232 12.0 23.0 0.00 0.00 0.00 15 1013.5
20260509050105 80 269 11.0 19.0 0.00 0.00 0.00 15 1013.5
20260509044557 81 293 12.0 28.0 0.00 0.00 0.00 14 1013.2
20260509043055 81 242 13.0 22.0 0.00 0.00 0.00 15 1013.1
20260509041556 81 255 12.0 21.0 0.00 0.00 0.00 15 1012.9
20260509040100 82 252 11.0 21.0 0.00 0.00 0.00 15 1012.8
20260509034558 82 248 12.0 23.0 0.00 0.00 0.00 15 1012.6
20260509033109 83 271 14.0 25.0 0.00 0.00 0.00 15 1012.5
20260509031605 83 259 13.0 24.0 0.00 0.00 0.00 15 1012.4
20260509030057 83 256 10.0 19.0 0.00 0.00 0.00 15 1012.1
20260509024555 83 253 9.0 17.0 0.00 0.00 0.00 15 1012.0
20260509023104 84 270 8.0 23.0 0.00 0.00 0.00 15 1011.7
20260509021555 84 277 11.0 21.0 0.00 0.00 0.00 14 1011.7
20260509020055 85 275 11.0 22.0 0.00 0.00 0.00 14 1011.5
20260509014555 86 267 9.0 20.0 0.00 0.00 0.00 14 1011.2
20260509013110 87 250 12.0 25.0 0.00 0.00 0.00 13 1011.2
20260509011556 88 229 10.0 21.0 0.00 0.00 0.00 13 1011.2
20260509010055 88 254 10.0 21.0 0.00 0.00 0.00 12 1011.2
20260509004611 90 270 9.0 19.0 0.00 0.00 0.00 12 1011.3
20260509003055 91 274 8.0 20.0 0.00 0.00 0.00 12 1011.2
20260509001556 92 278 9.0 19.0 0.00 0.00 0.00 11 1011.3
20260509000055 92 259 9.0 18.0 0.00 0.00 0.00 11 1011.2
20260508234555 93 240 5.0 13.0 0.00 0.00 0.00 11 1011.2
20260508233125 94 241 9.0 15.0 0.00 0.00 0.00 10 1011.4
20260508231558 93 227 7.0 17.0 0.00 0.00 0.00 10 1011.4
20260508230059 94 318 9.0 15.0 0.00 0.00 0.00 10 1011.5
20260508224619 93 0 3.0 9.0 0.00 0.00 0.00 10 1011.4
20260508223058 93 264 5.0 14.0 0.00 0.00 0.00 10 1011.7
20260508221555 94 0 2.0 9.0 0.00 0.00 0.00 9 1011.9
20260508220059 94 328 9.0 19.0 0.00 0.00 0.00 9 1012.1
20260508214555 92 348 5.0 12.0 0.00 0.00 0.00 9 1012.1
20260508213054 93 22 5.0 18.0 0.00 0.00 0.00 9 1012.3
20260508211555 93 342 5.0 15.0 0.00 0.00 0.00 8 1012.6
20260508210058 93 242 4.0 14.0 0.00 0.00 0.00 8 1012.8
20260508204556 93 275 7.0 14.0 0.00 0.00 0.00 8 1012.9
20260508203058 92 42 6.0 16.0 0.00 0.00 0.00 9 1013.0
20260508201558 91 246 5.0 10.0 0.00 0.00 0.00 9 1013.3
20260508200108 91 291 3.0 9.0 0.00 0.00 0.00 10 1013.5
20260508194603 90 128 4.0 12.0 0.00 0.00 0.00 10 1013.8
20260508193105 90 161 4.0 10.0 0.00 0.00 0.00 11 1014.1
20260508191555 89 75 4.0 8.0 0.00 0.00 0.00 11 1014.5
20260508190057 87 86 3.0 9.0 0.00 0.00 0.00 12 1014.8
20260508184556 85 59 4.0 10.0 0.00 0.00 0.00 13 1015.0
20260508183055 84 40 3.0 9.0 0.00 0.00 0.00 14 1015.3
20260508181556 83 123 4.0 8.0 0.00 0.00 0.00 15 1015.5
20260508180057 82 130 4.0 10.0 0.00 0.00 0.00 14 1015.6
20260508174610 80 18 3.0 8.0 0.00 0.00 0.00 14 1015.9